Find Starlink 32749

NORAD ID: 62508 Int'l Des: 2025-003 Owner: SPXS Country: US Constellation: starlink operational
LEOCIRCULAR

リアルタイム位置

3D地球を読み込み中...

Starlink 32749について

説明を読み込み中...

次回通過

Passes for default location (London). Set your location on the main map for personalized predictions.

高度履歴

Loading altitude history...

軌道要素

1 62508U 25003X 26107.26823605 .00014211 00000-0 52485-3 0 9995
2 62508 43.0017 70.9216 0000968 263.7920 96.2822 15.27585841 72458
Epoch: Apr 17, 2026 • Age: 12 hours

現在のステータス

高度 495.3 km
速度 7.62 km/s
衛星直下点 -42.27°S, 160.38°W
打ち上げ日 Jan 6, 2025
運用期間 1.2 years
タイプ internet

技術仕様

分類 Payload
質量 730.00 kg
乾燥質量 700.00 kg
総質量 730.00 kg
長さ 0.30 m
直径 4.10 m
スパン 29.00 m
形状 Box + pan
製造者 SPXS
バスタイプ Starlink V2M
フェーズステータス In Orbit
所有者/国 SPXS/US

Most Searched